Regional Weather Roundup
Issued by NWS

Home | Current Version | Previous Version | Graphics & Text | Print | Product List | Glossary On
Versions: 1 2 3 4 5 6 7 8 9 10 11 12 13 14 15 16 17 18 19 20 21 22 23 24 25 26 27 28 29 30 31 32 33 34 35 36 37 38 39 40 41 42 43 44 45 46 47 48 49 50
000
ASUS45 KBOU 260907
RWRCO

WEATHER ROUNDUP FOR COLORADO
NATIONAL WEATHER SERVICE DENVER/BOULDER CO
200 AM MST SUN FEB 26 2017

NOTE: "FAIR" INDICATES FEW OR NO CLOUDS BELOW 12000 FEET WITH NO
SIGNIFICANT WEATHER AND/OR OBSTRUCTIONS TO VISIBILITY.

COZ001>005-013-030-031-261000-
...NORTHWEST COLORADO...

CITY           SKY/WX    TMP DP  RH WIND       PRES   REMARKS
CRAIG          CLOUDY    15   8  73 NE3       29.91R
HAYDEN         CLOUDY    16   7  67 S3        29.89R
MEEKER         FAIR       4  -1  80 NE5       29.91R WCI  -5
MOUNT WERNER   NOT AVBL
STEAMBOAT SPGS CLOUDY    14   6  70 NW3       29.87S
WALDEN         NOT AVBL
$$

COZ006>008-011-261000-
...WEST CENTRAL VALLEYS...

CITY           SKY/WX    TMP DP  RH WIND       PRES   REMARKS
GRAND JUNCTION FAIR      24  11  57 NW5       29.93R WCI  18
MONTROSE       FAIR      25  16  68 SE10      29.93S WCI  15
EAGLE          MOCLDY    13   8  81 E6        29.91S WCI   4
RIFLE          FAIR      18  12  77 SE5       29.94R WCI  11
DELTA          FAIR      25  15  65 NW3       29.94R
NUCLA          CLOUDY    28  19  69 SE6       29.96R WCI  22
$$

COZ017>023-064>068-261000-
...SOUTHWEST COLORADO...

CITY           SKY/WX    TMP DP  RH WIND       PRES   REMARKS
DURANGO        FAIR      24   9  52 W7        29.85S WCI  16
CORTEZ         CLOUDY    27  20  75 SE3       29.90R
PAGOSA SPRINGS CLOUDY    22   9  57 CALM      29.84S
TELLURIDE      LGT SNOW  15  13  93 W3        29.85R
WOLF CREEK PAS CLOUDY     3   1  92 SW14G20   29.78F WCI -15
$$

COZ009-010-012-014-032>034-037-058>063-261000-
...CENTRAL COLORADO...

CITY           SKY/WX    TMP DP  RH WIND       PRES   REMARKS
ASPEN          FAIR       9   6  88 SW5       29.83F WCI   1
BUENA VISTA    FAIR      17   2  52 W3        29.76F
COPPER MTN     FAIR       1  -6  71 MISG      29.63S
BERTHOUD PASS  LGT SNOW  -8 -18  59 NW39G51   29.53R WCI -39
COTTONWOOD PAS CLOUDY    16   0  48 W25G41    29.67F WCI  -3
GUNNISON       FAIR      12   7  80 N6        29.86S WCI   3
KREMMLING      FAIR       5   0  78 SE5       29.86R WCI  -4
LEADVILLE      CLOUDY     6  -4  63 NW9       29.73S WCI  -8
MONARCH PASS   CLOUDY     1  -2  85 W35       29.75S WCI -25
SALIDA         FAIR      23   4  44 W15G23    29.85F WCI  10
SUNLIGHT       NOT AVBL
WILKERSON PASS FAIR       3  -4  72 W7        29.65R WCI  -9
$$

COZ069>075-261000-
...SAN LUIS VALLEY/SANGRE DE CRISTO MOUNTAINS...

CITY           SKY/WX    TMP DP  RH WIND       PRES   REMARKS
ALAMOSA        FAIR      21   9  59 NE9       29.81S WCI  11
LA VETA PASS   MOCLDY    12   7  79 SW15G25   29.72S WCI  -4
SAGUACHE       FAIR      18   9  68 NW12      29.82F WCI   5
$$

COZ035-036-038>040-261000-
...NORTHERN COLORADO FRONT RANGE...

CITY           SKY/WX    TMP DP  RH WIND       PRES   REMARKS
DENVER INTL AP FAIR      23   4  44 NW9       29.78R WCI  13
DMNS CITY PARK   N/A     27  -3  27 N8        29.77F WCI  19
AURORA         PTCLDY    21   2  44 N6        29.77F WCI  13
FRONT RANGE AP FAIR      19   9  63 W7        29.78S WCI  10
ERIE MUNI ARPT FAIR      21   5  49 SE3       29.78S
BOULDER MUN AP FAIR      23  10  58 W3        29.76S
CENTENNIAL     FAIR      15   5  64 SE8       29.77S WCI   4
BROOMFIELD     FAIR      28   0  29 W22       29.75F WCI  15
FORT COLLINS   FAIR      20   7  57 SE6       29.79F WCI  12
LONGMONT       FAIR      25  12  58 NE9       29.80F WCI  15
$$

COZ041-046-047-076>085-087-088-261000-
...PIKES PEAK/PALMER DIVIDE AND SOUTHERN FOOTHILLS...

CITY           SKY/WX    TMP DP  RH WIND       PRES   REMARKS
COLO. SPRINGS  FAIR      23  -2  33 NE6       29.77R WCI  16
A. F. ACADEMY  FAIR      23   0  37 N6        29.74F WCI  16
SCHRIEVER AFB  FAIR      22  -1  37 NW6       29.77S WCI  14
ELLICOTT       NOT AVBL
FALCON         FAIR      22   0  39 W7        29.76S WCI  13
FORT CARSON    FAIR      27   1  32 S15       29.75F WCI  15
LIMON          FAIR       4   0  83 N3        29.79F
MONUMENT HILL  FAIR      14   3  62 SW6       29.75S WCI   5
TRINIDAD       FAIR      16   1  51 NW6       29.80F WCI   7
$$

COZ042>045-048>051-090-091-261000-
...NORTHEAST COLORADO...

CITY           SKY/WX    TMP DP  RH WIND       PRES   REMARKS
GREELEY ARPT   FAIR      16   9  74 CALM      29.82S
AKRON          FAIR      22   9  57 SE5       29.82S WCI  16
BURLINGTON     FAIR      13   5  70 W3        29.82F
WRAY           NOT AVBL
STERLING       FAIR      16  10  79 SW5       29.84S WCI   9
HOLYOKE        FAIR      25  19  80 W8        29.85F WCI  16
FORT MORGAN    FAIR      17  11  78 N7        29.83S WCI   8
$$

COZ086-089-092>099-261000-
...SOUTHEAST COLORADO...

CITY           SKY/WX    TMP DP  RH WIND       PRES   REMARKS
PUEBLO         FAIR      22   2  42 SW7       29.80S WCI  13
LA JUNTA       FAIR      19   5  54 N6        29.83S WCI  11
LAMAR          FAIR      15   3  59 CALM      29.83R
SPRINGFIELD      N/A     19   2  47 NW8       29.80S WCI   9
$$



USA.gov is the U.S. government's official web portal to all federal, state and local government web resources and services.